This is the latest recevied weather packets stored in our database for station/object KC3DGM. If no packets are shown the sender has not sent any weather packets the latest 10 day(s).
| Time | Temp. | Humidity | Pressure | Rain* | Wind** | Luminosity | Snow |
|---|---|---|---|---|---|---|---|
| 1777490473 | 13.89° C | 96% | 978 hPa | 0 mm | - | 60 W/m² | - |
| 1777490169 | 13.89° C | 96% | 978.1 hPa | 0 mm | - | 46 W/m² | - |
| 1777489867 | 13.89° C | 97% | 977.9 hPa | 0 mm | - | 53 W/m² | - |
| 1777489564 | 13.89° C | 97% | 978 hPa | 0 mm | - | 93 W/m² | - |
| 1777489261 | 13.89° C | 97% | 977.8 hPa | 0 mm | - | 94 W/m² | - |
| 1777488957 | 13.89° C | 98% | 977.9 hPa | 0 mm | - | 165 W/m² | - |
| 1777488655 | 13.89° C | 97% | 978 hPa | 0 mm | - | 94 W/m² | - |
| 1777488352 | 13.89° C | 98% | 977.9 hPa | 0 mm | - | 113 W/m² | - |
| 1777488051 | 13.89° C | 98% | 978 hPa | 0 mm | - | 116 W/m² | - |
| 1777487748 | 13.89° C | 98% | 978.2 hPa | 0 mm | - | 120 W/m² | - |
| 1777487445 | 14.44° C | 98% | 977.7 hPa | 3.05 mm | - | 171 W/m² | - |
| 1777487143 | 13.89° C | 98% | 978.1 hPa | 6.1 mm | - | 282 W/m² | - |
| 1777486838 | 13.89° C | 98% | 978.2 hPa | 4.83 mm | - | 212 W/m² | - |
| 1777486536 | 13.33° C | 98% | 978.5 hPa | 3.05 mm | - | 62 W/m² | - |
| 1777486233 | 13.33° C | 98% | 978.6 hPa | 4.32 mm | - | 47 W/m² | - |
| 1777485931 | 13.33° C | 98% | 978.4 hPa | 4.32 mm | - | 35 W/m² | - |
| 1777485627 | 13.33° C | 97% | 978.8 hPa | 7.87 mm | - | 22 W/m² | - |
| 1777485322 | 13.33° C | 97% | 978.8 hPa | 13.72 mm | - | 29 W/m² | - |
| 1777485018 | 13.89° C | 97% | 978.5 hPa | 13.72 mm | - | 23 W/m² | - |
| 1777484716 | 13.89° C | 96% | 978.9 hPa | 3.05 mm | - | 22 W/m² | - |
| 1777484412 | 13.89° C | 96% | 978.8 hPa | 0 mm | - | 8 W/m² | - |
| 1777484109 | 13.89° C | 96% | 978.6 hPa | 0 mm | - | 48 W/m² | - |
| 1777483805 | 13.89° C | 96% | 978.5 hPa | 0 mm | - | 57 W/m² | - |
| 1777483502 | 13.89° C | 97% | 978.7 hPa | 1.27 mm | - | 83 W/m² | - |
| 1777483196 | 13.89° C | 97% | 978.5 hPa | 4.32 mm | - | 88 W/m² | - |
* Rain latest hour (hover to see other rain measurements)
** Current wind speed in m/s (hover to see current wind gust speed)